New Orleans, LA

4:12 PM CST on February 10, 2016 (GMT -0600)
Lakefront

Weather History for KNEW - November, 2012

Change the Weather History Date:

Monday, November 26, 2012

  Actual Average Record
Temperature  
Mean Temperature 60 °F 60 °F  
Max Temperature 69 °F 69 °F 84 °F (2001)
Min Temperature 50 °F 51 °F 32 °F (1991)
Degree Days  
Heating Degree Days 5 7  
Month to date heating degree days 134 110  
Since 1 July heating degree days 161 135  
Cooling Degree Days 0 1  
Month to date cooling degree days 36 64  
Year to date cooling degree days 3374 2973  
Growing Degree Days 10 (Base 50)    
Moisture  
Dew Point 60 °F    
Average Humidity 89    
Maximum Humidity 93    
Minimum Humidity 84    
Precipitation  
Precipitation 0.29 in 0.15 in 2.75 in (1948)
Month to date precipitation 1.75 3.84  
Year to date precipitation 62.40 56.56  
Snow  
Snow 0.00 in - - ()
Month to date snowfall 0.0  
Since 1 July snowfall 0.0  
Since 1 September snowfall 0.0  
Snow Depth 0.00 in    
Sea Level Pressure  
Sea Level Pressure 30.10 in    
Wind  
Wind Speed 5 mph (SSE)    
Max Wind Speed 13 mph    
Max Gust Speed 16 mph    
Visibility 8 miles    
Events Rain    
T = Trace of Precipitation, MM = Missing Value Source: NWS Daily Summary

Daily Weather History Graph

Daily Weather History Graph

Search for Another Location

Airport or City:

Trip Planner

Search our weather history database for the weather conditions in past years. The results will help you decide how hot, cold, wet, or windy it might be!

Date:

Astronomy

Nov. 26, 2012 Rise Set
Actual Time 6:34 AM CST 5:00 PM CST
Civil Twilight 6:08 AM CST 5:26 PM CST
Nautical Twilight 5:39 AM CST 5:55 PM CST
Astronomical Twilight 5:10 AM CST 6:24 PM CST
Moon 3:49 PM CST (11/26) 4:49 AM CST (11/26)
Length of Visible Light 11h 17m
Length of Day
10h 25m
Waxing Gibbous, 97% of the Moon is Illuminated
Nov 26
Waxing Gibbous
Nov 28
Full
Dec 6
Last Quarter
Dec 13
New
Dec 19
First Quarter

Hourly Weather History & Observations

Time (CST) Temp. Dew Point Humidity Pressure Visibility Wind Dir Wind Speed Gust Speed Precip Events Conditions
12:53 AM 53.1 °F 51.1 °F 93% 30.08 in 9.0 mi SE 4.6 mph - N/A   Clear
1:53 AM 54.0 °F 52.0 °F 93% 30.07 in 9.0 mi ESE 4.6 mph - N/A   Clear
2:53 AM 54.0 °F 52.0 °F 93% 30.08 in 10.0 mi SE 5.8 mph - N/A   Clear
3:53 AM 55.9 °F 54.0 °F 93% 30.07 in 10.0 mi SE 6.9 mph - N/A   Partly Cloudy
4:53 AM 57.9 °F 54.0 °F 87% 30.06 in 10.0 mi SE 6.9 mph - N/A   Partly Cloudy
5:53 AM 57.9 °F 55.0 °F 90% 30.08 in 10.0 mi SE 5.8 mph - N/A   Mostly Cloudy
6:53 AM 59.0 °F 55.9 °F 90% 30.09 in 10.0 mi SSE 4.6 mph - N/A   Scattered Clouds
7:53 AM 60.1 °F 57.0 °F 90% 30.11 in 10.0 mi SSE 4.6 mph - N/A   Mostly Cloudy
8:35 AM 62.6 °F 59.0 °F 88% 30.14 in 1.8 mi South 10.4 mph - 0.06 in Rain Rain
8:48 AM 62.6 °F 60.8 °F 94% 30.14 in 3.0 mi South 9.2 mph - 0.10 in Rain Light Rain
8:53 AM 63.0 °F 60.1 °F 90% 30.12 in 9.0 mi South 10.4 mph - 0.10 in Rain Light Rain
9:53 AM 63.0 °F 62.1 °F 97% 30.13 in 7.0 mi South 9.2 mph - 0.01 in Rain Light Rain
10:53 AM 66.0 °F 64.0 °F 93% 30.14 in 10.0 mi South 4.6 mph - 0.01 in   Overcast
11:08 AM 66.2 °F 62.6 °F 88% 30.15 in 10.0 mi South 6.9 mph - N/A   Overcast
11:53 AM 66.9 °F 64.0 °F 90% 30.12 in 10.0 mi South 8.1 mph - N/A   Overcast
12:01 PM 64.4 °F 62.6 °F 94% 30.14 in 10.0 mi West 3.5 mph - N/A   Overcast
12:53 PM 63.0 °F 61.0 °F 93% 30.09 in 6.0 mi ENE 4.6 mph - 0.00 in   Overcast
1:11 PM 66.2 °F 64.4 °F 94% 30.11 in 10.0 mi South 9.2 mph - N/A   Overcast
1:53 PM 66.0 °F 63.0 °F 90% 30.09 in 7.0 mi SSW 6.9 mph - 0.00 in Rain Light Rain
2:35 PM 64.4 °F 62.6 °F 94% 30.10 in 3.0 mi SSW 8.1 mph - 0.02 in Rain Light Rain
2:43 PM 64.4 °F 62.6 °F 94% 30.10 in 5.0 mi SSW 6.9 mph - 0.02 in   Overcast
2:53 PM 64.9 °F 63.0 °F 93% 30.08 in 5.0 mi South 8.1 mph - 0.02 in Rain Light Rain
3:53 PM 64.9 °F 63.0 °F 93% 30.06 in 10.0 mi SE 11.5 mph - 0.00 in   Overcast
4:53 PM 64.9 °F 63.0 °F 93% 30.06 in 10.0 mi SSE 6.9 mph - N/A   Overcast
5:53 PM 64.9 °F 63.0 °F 93% 30.07 in 10.0 mi SSE 6.9 mph - N/A   Overcast
6:53 PM 64.9 °F 63.0 °F 93% 30.08 in 10.0 mi SSE 9.2 mph - N/A   Overcast
7:53 PM 64.0 °F 62.1 °F 93% 30.09 in 10.0 mi SSE 10.4 mph - N/A   Partly Cloudy
8:53 PM 64.0 °F 62.1 °F 93% 30.09 in 10.0 mi South 11.5 mph - 0.01 in   Partly Cloudy
9:53 PM 64.0 °F 62.1 °F 93% 30.10 in 10.0 mi South 11.5 mph - N/A   Overcast
10:53 PM 64.0 °F 62.1 °F 93% 30.09 in 10.0 mi South 11.5 mph - N/A   Partly Cloudy
11:53 PM 64.0 °F 63.0 °F 96% 30.08 in 10.0 mi South 10.4 mph - N/A   Clear